Simultaneous Nadir Overpasses (SNOs) Predictions

Prediction of SNOs between NOAA-20 and AQUA Satellite Orbit:

Table of predicted SNOs for the next 14.0 days since TLE Epoch: 9/14/2024
Index Date (NOAA-20) Time (NOAA-20) Lat,Lon (NOAA-20) SZA (NOAA-20 ) Date (AQUA) Time (AQUA) Lat,Lon (AQUA) SZA (AQUA ) Distance(km) Time Diff (sec)
1 09/16/2024 03:26:01 81.31, 55.20 84.86 09/16/2024 03:27:12 81.32, 55.12 84.83 1.33 71
2 09/16/2024 04:16:46 -81.31,-137.35 95.15 09/16/2024 04:16:33 -81.31,-137.24 95.16 1.80 13
3 09/18/2024 15:29:05 -81.31, 54.67 94.25 09/18/2024 15:29:33 -81.32, 54.58 94.26 1.45 28
4 09/18/2024 16:19:49 81.32,-137.89 85.75 09/18/2024 16:18:54 81.31,-137.88 85.78 0.74 55
5 09/21/2024 02:41:25 -81.31,-113.89 93.27 09/21/2024 02:42:29 -81.31,-113.78 93.32 1.87 64
6 09/21/2024 03:32:08 81.32, 53.94 86.68 09/21/2024 03:31:49 81.32, 54.09 86.67 2.53 19
7 09/23/2024 14:44:25 81.32,-114.02 87.58 09/23/2024 14:44:39 81.31,-114.13 87.59 1.81 14
8 09/23/2024 15:35:10 -81.32, 53.43 92.43 09/23/2024 15:34:00 -81.31, 53.53 92.40 1.62 70
9 09/26/2024 01:56:43 81.32, 77.83 88.51 09/26/2024 01:57:25 81.32, 77.85 88.49 0.53 42



Historial Predications of SNOs between NOAA-20 and AQUA
